Regional Weather Roundup
Issued by NWS

Home | Current Version | Previous Version | Text Only | Print | Product List | Glossary Off
Versions: 1 2 3 4 5 6 7 8 9 10 11 12 13 14 15 16 17 18 19 20 21 22 23 24 25 26 27 28 29 30 31 32 33 34 35 36 37 38 39 40 41 42 43 44 45 46 47 48 49 50

959
ASUS44 KMEG 210010
RWRTN
TENNESSEE HOURLY STATE WEATHER ROUNDUP
NATIONAL WEATHER SERVICE MEMPHIS TN
600 PM CST FRI JAN 20 2017

TNZ002-004-019-021-049-052-054-088>092-210100-
WEST TENNESSEE

CITY           SKY/WX    TMP DP  RH WIND       PRES   REMARKS
MEMPHIS INTL   MOCLDY    65  56  72 S9        29.69R
NWS MEMPHIS      N/A     65 N/A N/A MISG        N/A
JACKSON        CLOUDY    59  54  83 S3        29.70S
DYERSBURG      MOCLDY    61  52  72 S6        29.67S
UNION CITY     CLEAR     57  57 100 CALM      29.67R
PARIS          CLEAR     55  52  88 CALM      29.70S
HUNTINGDON     CLEAR     59  54  82 S5        29.70R
$$

TNZ008-025-027-028-033-062-065-066-210100-
NORTH MIDDLE TENNESSEE

CITY           SKY/WX    TMP DP  RH WIND       PRES   REMARKS
NASHVILLE      MOCLDY    61  51  70 S6        29.74R
PORTLAND       CLEAR     61  52  72 S9        29.73R
CLARKSVILLE    CLEAR     61  51  70 S5        29.72R
SMYRNA         CLEAR     61  52  72 SE6       29.75R
GALLATIN       CLEAR     61  52  72 SE6       29.76S
CROSSVILLE     PTCLDY    58  48  69 S3        29.82R
$$

TNZ061-075-076-078-094-096-097-210100-
SOUTH MIDDLE TENNESSEE

CITY           SKY/WX    TMP DP  RH WIND       PRES   REMARKS
TULLAHOMA      CLEAR     61  48  63 S5        29.79S
WINCHESTER     CLEAR     61  50  67 S3        29.80R
MCMINNVILLE    CLEAR     59  52  77 CALM      29.79S
COLUMBIA       CLEAR     63  59  88 S6        29.73R
SHELBYVILLE    CLEAR     64  54  68 S9        29.77S
$$

TNZ017-018-042-046-047-210100-
NORTHEAST TENNESSEE

CITY           SKY/WX    TMP DP  RH WIND       PRES   REMARKS
TRI CITIES     PTCLDY    55  48  77 CALM      29.83S
ELIZABETHTON   PTCLDY    52  50  93 CALM      29.84R
$$

TNZ012-013-036-069-073-074-210100-
CENTRAL EAST TENNESSEE

CITY           SKY/WX    TMP DP  RH WIND       PRES   REMARKS
KNOXVILLE      MOCLDY    60  49  66 SW5       29.79R
OAK RIDGE      CLEAR     58  50  75 CALM      29.81R
GATLINBURG     CLEAR     55  48  76 CALM      29.79S
MORRISTOWN     PTCLDY    59  52  77 CALM      29.80S
JACKSBORO      PTCLDY    55  50  82 CALM      29.83R
$$

TNZ083-085-099-210100-
SOUTHEAST TENNESSEE

CITY           SKY/WX    TMP DP  RH WIND       PRES   REMARKS
CHATTANOOGA    MOCLDY    65  52  62 S3        29.80R
$$

SKY/WX REPORTED AS FAIR MEANS FEW OR NO CLOUDS BELOW
12 THOUSAND FEET.





USA.gov is the U.S. government's official web portal to all federal, state and local government web resources and services.